Weather History for Roseburg, OR

Change the Weather History Date:

Thursday, May 1, 2014

  Actual Average Record
Temperature  
Mean Temperature 72 °F 55 °F  
Max Temperature 92 °F 66 °F 93 °F (1947)
Min Temperature 52 °F 45 °F 26 °F (1954)
Degree Days  
Heating Degree Days 0 10  
Month to date heating degree days 0 10  
Since 1 July heating degree days 3614 3774  
Cooling Degree Days 7 0  
Month to date cooling degree days 7 0  
Year to date cooling degree days 13 1  
Growing Degree Days 22 (Base 50)    
Moisture  
Dew Point 47 °F    
Average Humidity 50    
Maximum Humidity 83    
Minimum Humidity 16    
Precipitation  
Precipitation 0.00 in 0.09 in 1.16 in (1949)
Month to date precipitation 0.00 0.09  
Year to date precipitation 14.01 15.45  
Sea Level Pressure  
Sea Level Pressure 30.04 in    
Wind  
Wind Speed 2 mph (NW)    
Max Wind Speed 14 mph    
Max Gust Speed 19 mph    
Visibility 10 miles    
Events      
T = Trace of Precipitation, MM = Missing Value Source: NWS Daily Summary

Daily Weather History Graph

Daily Weather History Graph

Search for Another Location

Airport:

Trip Planner

Search our weather history database for the weather conditions in past years. The results will help you decide how hot, cold, wet, or windy it might be!

Date:

Astronomy

May. 01, 2014 Rise Set
Actual Time 6:06 AM PDT 8:15 PM PDT
Civil Twilight 5:35 AM PDT 8:46 PM PDT
Nautical Twilight 4:57 AM PDT 9:25 PM PDT
Astronomical Twilight 4:14 AM PDT 10:07 PM PDT
Moon 7:57 AM PDT (5/1) 10:54 PM PDT (5/1)
Length of Visible Light 15h 11m
Length of Day
14h 08m
Waxing Crescent, 7% of the Moon is Illuminated
May 1
Waxing Crescent
May 6
First Quarter
May 14
Full
May 21
Last Quarter
May 28
New

Hourly Weather History & Observations

Time (PDT) Temp. Dew Point Humidity Pressure Visibility Wind Dir Wind Speed Gust Speed Precip Events Conditions
12:53 AM 61.0 °F 52.0 °F 72% 30.05 in 10.0 mi Calm Calm - N/A   Clear
1:53 AM 59.0 °F 50.0 °F 72% 30.05 in 10.0 mi Calm Calm - N/A   Clear
2:53 AM 57.9 °F 51.1 °F 78% 30.05 in 10.0 mi Calm Calm - N/A   Clear
3:53 AM 55.9 °F 48.9 °F 77% 30.05 in 10.0 mi Calm Calm - N/A   Clear
4:53 AM 54.0 °F 48.9 °F 83% 30.05 in 10.0 mi Calm Calm - N/A   Clear
5:53 AM 52.0 °F 46.9 °F 83% 30.05 in 10.0 mi Calm Calm - N/A   Clear
6:53 AM 52.0 °F 46.9 °F 83% 30.06 in 10.0 mi Calm Calm - N/A   Clear
7:53 AM 57.0 °F 48.0 °F 72% 30.06 in 10.0 mi Calm Calm - N/A   Clear
8:53 AM 61.0 °F 48.0 °F 62% 30.06 in 10.0 mi South 3.5 mph - N/A   Clear
9:53 AM 66.9 °F 48.0 °F 51% 30.06 in 10.0 mi Calm Calm - N/A   Clear
10:53 AM 71.1 °F 48.0 °F 44% 30.05 in 10.0 mi Calm Calm - N/A   Clear
11:53 AM 79.0 °F 48.9 °F 35% 30.04 in 10.0 mi Calm Calm - N/A   Clear
12:53 PM 82.0 °F 46.9 °F 29% 30.03 in 10.0 mi Calm Calm - N/A   Clear
1:53 PM 87.1 °F 46.9 °F 25% 30.01 in 10.0 mi South 5.8 mph - N/A   Clear
2:53 PM 90.0 °F 42.1 °F 19% 29.99 in 10.0 mi SE 8.1 mph - N/A   Clear
3:53 PM 91.0 °F 39.9 °F 17% 29.98 in 10.0 mi Variable 3.5 mph - N/A   Clear
4:53 PM 91.9 °F 43.0 °F 18% 29.97 in 10.0 mi NW 6.9 mph - N/A   Clear
5:53 PM 89.1 °F 44.1 °F 21% 29.99 in 10.0 mi NW 10.4 mph 18.4 mph N/A   Clear
6:53 PM 86.0 °F 44.1 °F 23% 30.00 in 10.0 mi NNW 6.9 mph - N/A   Clear
7:53 PM 81.0 °F 45.0 °F 28% 30.01 in 10.0 mi WNW 3.5 mph - N/A   Clear
8:53 PM 73.9 °F 48.0 °F 40% 30.04 in 10.0 mi North 3.5 mph - N/A   Clear
9:53 PM 68.0 °F 48.0 °F 49% 30.06 in 10.0 mi Calm Calm - N/A   Clear
10:53 PM 64.0 °F 48.0 °F 56% 30.07 in 10.0 mi Calm Calm - N/A   Clear
11:53 PM 62.1 °F 48.9 °F 62% 30.08 in 10.0 mi Calm Calm - N/A   Clear